Location: Mexico
(19.4000°N, 99.1500°W)
Time: 14:07:43
(UTC-06:00)

ISS - Pass Details

Date: 27 March 2017
Orbit: 399 x 409 km, 51.6° (Epoch: 24 March)

Event Time Altitude Azimuth Distance (km) Brightness Sun altitude
Exits shadow 05:03:23 23° 152° (SSE) 916 -1.9 -22.1°
Drops below altitude 10° 05:04:45 10° 148° (SSE) 1,459 -0.8 -21.8°
Sets 05:06:50 0° 146° (SE) 2,317 0.3 -21.3°
